loading
|

THOR ABLESTAR DEB, 461

Orbit data source: Space-Track

THOR ABLESTAR DEB, 461 is space debris in LEO originally from a launch on Thu, 29 Jun 1961 UTC launched from the Air Force Eastern Test Range (AFETR). Debris objects in space refer to the collection of defunct objects orbiting the Earth. Examples of debris include non-operational satellites, rocket bodies, and fragments generated from explosions, collisions, or faulty payload assembly.

Loading next visibility...
Loading greatness...
THOR ABLESTAR DEB details
Identifier
461, 1961-015EX
Orbit
LEO
Last TLE update8 hours ago
Origin
Flag of USUSAF SSD (US)
ManufacturerUnknown
Mission statusUnknown
MissionUnknown
Bus & MotorUnknown
MassUnknown
Launch date (UTC)
1961-06-29 (63 years ago)
Launch vehicleUnknown
Launch site
Air Force Eastern Test Range (AFETR)
Object type
Payload
Rocket body
Debris
Radar Cross SectionMedium (>0.1 m² and <1 m²)

Expand to show TLE details & history

TLE from 8 hours ago
0 THOR ABLESTAR DEB
1 00461U 61015EX  24258.90707636  .00028737  00000-0  39763-2 0  9990
2 00461  67.5033  82.7697 0039396 241.0379 118.6798 14.77406481290195
Epoch: 2024-09-14T21:46Z
Definitive object data (Epoch: 2024-09-14T21:46:11.397Z)
Latitude-0.00002°
Longitude121.86414°
Altitude653.088 km
Speed7.524 km/s
True Right ascension05h 31m 04s
True Declination0° 00' 00"
Sunlit
Object was in daylight at TLE epoch
Predictive object data (real-time)
Latitude43.62313°
Longitude144.03053°
Altitude670.162 km
Speed7.512 km/s
Apparent Right ascension08h 49m 48s
Apparent Declination4° 58' 59"
Sunlit
Object is in daylight
Predictive observer data (real-time)
Local Sidereal Time22:45:02
Azimuth37.451° NE
Elevation-37.863°
Doppler factor1
Orbital elements
Apogee663.399 km
Perigee608.135 km
Semi-major axis7,013.904 km
Eccentricity0.0039396
Inclination67.5033°
RAAN82.7697°
Arg. of periapsis241.0379°
True anomaly119.07492°
Mean anomaly118.6798°
Eccentric anomaly118.87745°
Mean motion3.69491 °/min
BSTAR0.0039763
Period97.43 mins
No data available

THOR ABLESTAR DEB Visibility forecast

Observer location: 39.9160978°, -105.1181434

THOR ABLESTAR DEB is not visible in the next 10 days
Span
Click to sort rows by Start time (UTC) header in descending order
Start Az.
Max El. time (UTC)
Max El. Az.
Max El.
End time (UTC)
End Az.